TimeHST,TemperatureF,Dew PointF,Humidity,Sea Level PressureIn,VisibilityMPH,Wind Direction,Wind SpeedMPH,Gust SpeedMPH,PrecipitationIn,Events,Conditions,WindDirDegrees,DateUTC
12:53 AM,72.0,61.0,68,30.13,10.0,NE,12.7,21.9,N/A,,Mostly Cloudy,50,2013-02-25 10:53:00
1:53 AM,72.0,60.1,66,30.11,10.0,NE,12.7,-,N/A,,Mostly Cloudy,40,2013-02-25 11:53:00
2:53 AM,72.0,60.1,66,30.09,10.0,ENE,13.8,-,N/A,,Mostly Cloudy,60,2013-02-25 12:53:00
3:53 AM,71.1,61.0,70,30.08,10.0,ENE,10.4,-,0.00,,Mostly Cloudy,60,2013-02-25 13:53:00
4:53 AM,71.1,59.0,66,30.07,10.0,NE,9.2,16.1,N/A,,Mostly Cloudy,50,2013-02-25 14:53:00
5:53 AM,71.1,59.0,66,30.09,10.0,NNE,10.4,-,0.00,,Scattered Clouds,30,2013-02-25 15:53:00
6:53 AM,71.1,57.9,63,30.11,10.0,ENE,10.4,20.7,N/A,,Scattered Clouds,60,2013-02-25 16:53:00
7:53 AM,72.0,59.0,64,30.12,10.0,NE,6.9,-,N/A,,Scattered Clouds,50,2013-02-25 17:53:00
8:53 AM,75.0,60.1,60,30.13,10.0,NE,13.8,20.7,N/A,,Mostly Cloudy,50,2013-02-25 18:53:00
9:53 AM,73.9,60.1,62,30.15,10.0,NE,12.7,-,N/A,,Mostly Cloudy,40,2013-02-25 19:53:00
10:53 AM,77.0,60.1,56,30.14,10.0,NE,18.4,24.2,N/A,,Scattered Clouds,50,2013-02-25 20:53:00
11:53 AM,79.0,61.0,54,30.12,10.0,NNE,16.1,26.5,N/A,,Scattered Clouds,30,2013-02-25 21:53:00
12:53 PM,78.1,60.1,54,30.10,10.0,NE,20.7,26.5,N/A,,Scattered Clouds,40,2013-02-25 22:53:00
1:53 PM,77.0,60.1,56,30.07,10.0,NE,17.3,29.9,N/A,,Scattered Clouds,40,2013-02-25 23:53:00
2:53 PM,77.0,61.0,58,30.06,10.0,NE,17.3,25.3,N/A,,Scattered Clouds,40,2013-02-26 00:53:00
3:53 PM,77.0,62.1,60,30.05,10.0,NE,16.1,24.2,N/A,,Mostly Cloudy,40,2013-02-26 01:53:00
4:53 PM,75.9,61.0,60,30.06,10.0,NE,17.3,23.0,N/A,,Mostly Cloudy,40,2013-02-26 02:53:00
5:53 PM,75.9,61.0,60,30.07,10.0,ENE,12.7,-,N/A,,Mostly Cloudy,60,2013-02-26 03:53:00
6:53 PM,73.9,62.1,66,30.10,10.0,ENE,6.9,-,0.00,Rain,Light Rain,70,2013-02-26 04:53:00
7:53 PM,73.0,63.0,71,30.12,10.0,ENE,11.5,-,0.00,Rain,Light Rain,70,2013-02-26 05:53:00
8:53 PM,72.0,64.0,76,30.15,10.0,NE,11.5,-,0.00,,Overcast,50,2013-02-26 06:53:00
9:53 PM,72.0,63.0,73,30.16,10.0,East,15.0,-,N/A,,Mostly Cloudy,80,2013-02-26 07:53:00
10:53 PM,73.0,62.1,68,30.15,10.0,ENE,17.3,27.6,N/A,,Mostly Cloudy,70,2013-02-26 08:53:00
11:53 PM,73.0,62.1,68,30.14,10.0,NE,10.4,20.7,N/A,,Scattered Clouds,40,2013-02-26 09:53:00